CW0927 Weather Reports


Display with metric or nautical units.
time (UTC)temp
F
wind
direction
speed
MPH
gust
MPH
rain 1hr
in
rain 24hr
in
rain mn
in
humidity
%
barometer
mb
20260503181349 80 108 3.0 8.0 0.00 0.17 0.02 56 1019.5
20260503180826 80 74 2.0 5.0 0.00 0.17 0.02 58 1019.5
20260503180355 80 71 2.0 6.0 0.00 0.17 0.02 56 1019.7
20260503175830 81 24 3.0 5.0 0.00 0.22 0.02 58 1019.6
20260503175329 80 87 2.0 6.0 0.00 0.22 0.02 57 1019.6
20260503174829 79 42 2.0 6.0 0.00 0.22 0.02 59 1019.7
20260503174332 79 25 2.0 5.0 0.00 0.22 0.02 58 1019.8
20260503173857 80 69 2.0 8.0 0.00 0.22 0.02 59 1019.8
20260503173337 79 66 2.0 7.0 0.00 0.22 0.02 60 1019.7
20260503172906 79 360 3.0 7.0 0.00 0.22 0.02 59 1019.8
20260503172345 77 86 4.0 8.0 0.00 0.22 0.02 59 1019.8
20260503171845 78 42 1.0 8.0 0.00 0.22 0.02 60 1019.9
20260503171347 78 163 1.0 6.0 0.00 0.22 0.02 61 1019.8
20260503170848 78 51 2.0 6.0 0.00 0.22 0.02 62 1020.0
20260503170349 78 66 1.0 6.0 0.00 0.22 0.02 60 1019.9
20260503150845 72 106 2.0 9.0 0.00 0.22 0.02 74 1020.3
20260503150341 71 9 2.0 5.0 0.00 0.22 0.02 76 1020.3
20260503131332 65 360 0.0 3.0 0.00 0.22 0.02 92 1019.4
20260503130833 64 40 1.0 3.0 0.00 0.22 0.02 92 1019.4
20260503130330 64 270 1.0 3.0 0.00 0.22 0.02 93 1019.3
20260503110407 63 331 0.0 1.0 0.00 0.22 0.02 93 1018.2
20260503090328 63 314 0.0 2.0 0.00 0.22 0.02 93 1017.4
20260503081334 64 42 0.0 1.0 0.00 0.22 0.02 93 1016.8
20260503080843 64 42 0.0 2.0 0.00 0.22 0.02 92 1016.7
20260503080346 64 44 0.0 2.0 0.00 0.22 0.02 92 1016.7
20260503072834 64 337 0.0 2.0 0.00 0.22 0.02 93 1016.7
20260503072331 64 337 0.0 2.0 0.00 0.22 0.02 92 1016.6
20260503071833 64 349 0.0 2.0 0.00 0.22 0.02 92 1016.5
20260503071335 64 15 0.0 2.0 0.00 0.22 0.02 92 1016.7
20260503070838 64 355 0.0 2.0 0.00 0.22 0.02 92 1016.8
20260503070341 64 355 0.0 3.0 0.00 0.22 0.02 92 1016.7
20260503060341 65 24 0.0 1.0 0.01 0.22 0.02 92 1016.9
20260503054854 65 24 0.0 1.0 0.01 0.22 0.02 92 1016.9
20260503054335 65 19 0.0 1.0 0.01 0.22 0.02 92 1017.0
20260503053837 65 19 0.0 0.0 0.01 0.22 0.02 91 1017.1
20260503053342 65 19 0.0 0.0 0.01 0.22 0.02 91 1017.2
20260503052833 65 19 0.0 0.0 0.01 0.22 0.02 91 1017.3
20260503052334 65 19 0.0 0.0 0.01 0.22 0.02 91 1017.4
20260503051835 65 19 0.0 0.0 0.01 0.22 0.02 91 1017.5
20260503051333 65 19 0.0 0.0 0.01 0.22 0.02 91 1017.4
20260503050903 65 19 0.0 0.0 0.00 0.21 0.01 91 1017.4
20260503050326 65 28 0.0 1.0 0.01 0.21 0.01 91 1017.2
20260503045827 65 28 0.0 2.0 0.01 0.21 0.01 91 1017.2
20260503045357 65 360 0.0 2.0 0.01 0.21 0.01 91 1017.2
20260503044904 65 355 0.0 1.0 0.02 0.21 0.01 91 1017.3
20260503044343 65 349 0.0 1.0 0.02 0.21 0.01 91 1017.1
20260503043843 65 350 0.0 2.0 0.02 0.21 0.01 90 1016.9
20260503043410 65 5 0.0 2.0 0.02 0.21 0.01 90 1016.7
20260503042847 66 360 1.0 2.0 0.03 0.21 0.01 90 1016.5
20260503042326 66 355 0.0 2.0 0.03 0.21 0.01 90 1016.4
20260503041827 66 348 0.0 4.0 0.03 0.21 0.01 90 1016.5
20260503041329 66 355 1.0 5.0 0.03 0.21 0.01 90 1016.6
20260503040831 67 5 1.0 5.0 0.02 0.20 0.00 90 1016.4
20260503040401 67 28 0.0 5.0 0.02 0.20 0.00 90 1016.2
20260503035908 68 9 1.0 4.0 0.02 0.20 0.00 90 1016.0
20260503035341 68 327 1.0 4.0 0.02 0.20 0.20 90 1015.9
20260503034842 69 11 1.0 8.0 0.01 0.19 0.19 90 1016.0
20260503034407 69 5 1.0 8.0 0.01 0.19 0.19 90 1015.6
20260503033846 69 28 0.0 1.0 0.01 0.19 0.19 90 1015.5
20260503033348 69 360 0.0 2.0 0.01 0.19 0.19 90 1015.4
20260503032849 69 61 0.0 2.0 0.00 0.18 0.18 90 1015.3
20260503032349 70 333 0.0 4.0 0.00 0.18 0.18 90 1015.3
20260503031829 70 339 1.0 4.0 0.00 0.18 0.18 90 1015.3
20260503031331 70 10 0.0 5.0 0.00 0.18 0.18 89 1015.2
20260503030832 70 13 1.0 5.0 0.00 0.18 0.18 89 1015.0
20260503030335 70 360 0.0 6.0 0.00 0.18 0.18 89 1015.0
20260503025834 71 355 1.0 6.0 0.00 0.18 0.18 89 1015.1
20260503025405 71 318 3.0 6.0 0.00 0.18 0.18 90 1015.2
20260503024839 72 313 1.0 4.0 0.00 0.18 0.18 90 1014.8
20260503024340 72 247 1.0 4.0 0.00 0.18 0.18 90 1014.6
20260503023911 72 263 1.0 7.0 0.00 0.18 0.18 90 1014.7
20260503023350 72 247 3.0 7.0 0.00 0.18 0.18 90 1014.6
20260503022849 72 247 0.0 4.0 0.00 0.18 0.18 90 1014.4
20260503022345 71 255 1.0 3.0 0.00 0.18 0.18 90 1014.4
20260503021826 71 261 0.0 6.0 0.00 0.18 0.18 90 1014.2
20260503021357 71 262 1.0 6.0 0.00 0.18 0.18 90 1014.2
20260503020836 71 257 1.0 3.0 0.00 0.18 0.18 90 1014.1
20260503020338 71 250 1.0 3.0 0.00 0.18 0.18 90 1014.0
20260503015838 71 256 1.0 4.0 0.00 0.18 0.18 90 1013.8
20260503015336 71 262 1.0 6.0 0.00 0.18 0.18 90 1013.5
20260503014838 71 259 1.0 6.0 0.00 0.18 0.18 90 1013.2
20260503014347 71 248 1.0 5.0 0.00 0.18 0.18 90 1013.2
20260503013846 71 252 1.0 2.0 0.00 0.18 0.18 90 1013.2
20260503013355 71 252 0.0 2.0 0.00 0.18 0.18 90 1013.3
20260503012833 71 249 0.0 2.0 0.00 0.18 0.18 90 1013.4
20260503012334 71 252 0.0 3.0 0.00 0.18 0.18 90 1013.2
20260503011835 71 254 0.0 2.0 0.00 0.18 0.18 90 1013.1
20260503011338 71 254 0.0 4.0 0.00 0.18 0.18 90 1013.1
20260503010840 71 254 1.0 4.0 0.00 0.18 0.18 90 1013.1
20260503010344 71 261 1.0 3.0 0.00 0.18 0.18 90 1013.1
20260503005825 71 250 0.0 4.0 0.00 0.18 0.18 90 1012.9
20260503005324 71 248 1.0 4.0 0.00 0.18 0.18 90 1013.0
20260503004850 71 252 1.0 4.0 0.00 0.18 0.18 90 1012.9
20260503004349 71 257 1.0 3.0 0.00 0.18 0.18 90 1012.7
20260503003852 71 242 0.0 2.0 0.00 0.18 0.18 90 1012.7
20260503003333 71 253 0.0 2.0 0.00 0.18 0.18 90 1012.8
20260503002834 71 250 0.0 2.0 0.00 0.18 0.18 90 1012.9
20260503002338 71 248 0.0 2.0 0.00 0.18 0.18 90 1012.9
20260503001840 71 236 0.0 1.0 0.00 0.18 0.18 90 1012.8
20260503001341 71 236 0.0 1.0 0.00 0.18 0.18 90 1012.6
20260503000841 71 190 0.0 0.0 0.00 0.18 0.18 90 1012.3
20260503000344 71 199 0.0 0.0 0.00 0.18 0.18 89 1012.3
20260502235910 71 198 0.0 0.0 0.00 0.18 0.18 89 1012.2
20260502235349 71 197 0.0 0.0 0.00 0.18 0.18 89 1012.3
20260502234831 71 197 0.0 0.0 0.00 0.18 0.18 89 1012.2
20260502234333 71 197 0.0 1.0 0.00 0.18 0.18 89 1012.2
20260502233835 71 198 0.0 2.0 0.00 0.18 0.18 90 1012.0
20260502233338 71 178 0.0 2.0 0.00 0.18 0.18 90 1012.1
20260502232909 71 262 0.0 1.0 0.00 0.18 0.18 90 1012.2
20260502232346 71 262 0.0 2.0 0.00 0.18 0.18 90 1012.4
20260502231825 71 266 0.0 5.0 0.00 0.18 0.18 90 1012.3
20260502231326 70 267 1.0 7.0 0.00 0.18 0.18 90 1012.3
20260502230911 70 244 1.0 7.0 0.00 0.18 0.18 90 1012.5
20260502230354 70 276 1.0 3.0 0.00 0.18 0.18 90 1012.6
20260502225902 70 248 1.0 5.0 0.00 0.18 0.18 90 1012.7
20260502225340 70 249 1.0 5.0 0.00 0.18 0.18 90 1012.6
20260502224841 70 168 2.0 5.0 0.01 0.18 0.18 90 1012.4
20260502224412 70 253 1.0 4.0 0.01 0.18 0.18 91 1012.4
20260502223852 70 283 1.0 5.0 0.01 0.18 0.18 91 1012.6
20260502223332 70 219 1.0 5.0 0.01 0.18 0.18 90 1012.2
20260502222833 70 198 2.0 6.0 0.01 0.18 0.18 90 1012.0
20260502222359 71 191 1.0 4.0 0.01 0.18 0.18 90 1011.7
20260502221841 71 249 2.0 4.0 0.01 0.18 0.18 90 1012.2
20260502221344 71 264 0.0 4.0 0.01 0.18 0.18 90 1011.4
20260502220846 71 290 0.0 4.0 0.01 0.18 0.18 90 1011.8
20260502220351 71 234 0.0 6.0 0.01 0.18 0.18 90 1011.4
20260502215852 71 257 2.0 6.0 0.01 0.18 0.18 90 1011.8
20260502215333 71 243 1.0 9.0 0.01 0.18 0.18 90 1011.8
20260502214834 71 223 3.0 9.0 0.00 0.17 0.17 90 1011.9
20260502214404 71 255 2.0 7.0 0.00 0.17 0.17 90 1012.1
20260502213824 71 220 2.0 9.0 0.00 0.17 0.17 90 1012.1
20260502213329 71 263 2.0 8.0 0.01 0.17 0.17 90 1012.0
20260502212830 71 262 2.0 7.0 0.02 0.17 0.17 91 1011.8
20260502212334 71 153 2.0 6.0 0.04 0.17 0.17 91 1011.8
20260502211833 71 251 1.0 5.0 0.06 0.17 0.17 91 1012.0
20260502211336 71 250 2.0 5.0 0.08 0.17 0.17 91 1012.0
20260502210906 71 265 1.0 5.0 0.09 0.17 0.17 91 1011.8
20260502210348 71 188 1.0 5.0 0.10 0.17 0.17 91 1011.3
20260502205849 71 157 0.0 4.0 0.10 0.17 0.17 91 1011.1
20260502205358 71 128 1.0 4.0 0.10 0.17 0.17 90 1011.0
20260502204837 70 150 0.0 2.0 0.10 0.17 0.17 90 1011.2
20260502204340 70 249 0.0 3.0 0.10 0.17 0.17 89 1011.1
20260502203841 70 252 1.0 6.0 0.10 0.17 0.17 89 1011.6
20260502203343 70 172 1.0 7.0 0.09 0.16 0.16 89 1011.7
20260502202847 70 204 2.0 10.0 0.09 0.15 0.15 88 1012.2
20260502202345 71 268 6.0 12.0 0.07 0.13 0.13 88 1012.7
20260502201846 71 267 6.0 15.0 0.05 0.11 0.11 87 1012.7
20260502201347 71 244 6.0 15.0 0.04 0.09 0.09 87 1013.0
20260502200827 71 325 4.0 14.0 0.02 0.07 0.07 86 1013.0
20260502200332 71 253 6.0 10.0 0.02 0.07 0.07 86 1013.2
20260502195831 71 225 4.0 9.0 0.02 0.07 0.07 86 1012.9
20260502195334 71 266 2.0 8.0 0.02 0.07 0.07 86 1012.9
20260502194845 71 261 3.0 8.0 0.02 0.07 0.07 86 1013.0
20260502194346 71 244 4.0 9.0 0.02 0.07 0.07 85 1013.1
20260502193822 71 289 3.0 9.0 0.02 0.07 0.07 86 1013.3
20260502193353 71 259 4.0 9.0 0.02 0.07 0.07 85 1013.0
20260502192825 71 304 4.0 14.0 0.01 0.06 0.06 85 1012.7
20260502192324 72 265 5.0 16.0 0.01 0.06 0.06 84 1012.7
20260502191823 72 292 6.0 18.0 0.01 0.06 0.06 83 1012.8
20260502191324 73 183 8.0 22.0 0.00 0.05 0.05 80 1013.2
20260502190824 73 296 9.0 22.0 0.00 0.05 0.05 79 1013.3
20260502190330 74 223 10.0 22.0 0.00 0.05 0.05 78 1013.6
20260502185830 76 276 9.0 23.0 0.00 0.05 0.05 77 1013.6
20260502185332 78 355 9.0 23.0 0.00 0.05 0.05 76 1013.6
20260502184833 79 257 4.0 10.0 0.00 0.05 0.05 81 1012.8
20260502184334 78 254 0.0 5.0 0.00 0.05 0.05 81 1012.3
20260502183834 78 257 1.0 6.0 0.01 0.05 0.05 81 1012.4
20260502183336 78 263 2.0 6.0 0.04 0.05 0.05 80 1012.3
20260502182836 78 248 0.0 3.0 0.04 0.05 0.05 81 1012.4
20260502182403 78 254 1.0 3.0 0.05 0.05 0.05 80 1012.3
20260502181845 78 248 2.0 8.0 0.05 0.05 0.05 80 1012.3